Tracking 27111 objects as of 28-Mar-2023
HD Live streaming from Space Station
objects crossing your sky now

STARLINK-5266

Track STARLINK-5266 now!
10-day predictions
STARLINK-5266 is classified as:


NORAD ID: 55290
Int'l Code: 2023-010X
Perigee: 363.4 km
Apogee: 369.1 km
Inclination: 70.0 °
Period: 91.7 minutes
Semi major axis: 6737 km
RCS: Unknown
Launch date: January 19, 2023
Source: United States (US)
Launch site: AIR FORCE WESTERN TEST RANGE (AFWTR)
Your satellite tracking list
Your tracking list is empty




NASA's NSSDC Master Catalog

Two Line Element Set (TLE):
1 55290U 23010X   23086.90941564  .00005203  00000-0  45019-4 0  9997
2 55290  70.0018 239.4842 0004228 265.3185  94.7528 15.69916718 11085
Source of the keplerian elements: AFSPC